Year,Month,Day,Hour,Minute,Value (Times are PST for temperature in C)
2018,06,23,00,00,12.20
2018,06,23,00,01,12.20
2018,06,23,00,02,12.10
2018,06,23,00,03,12.10
2018,06,23,00,04,12.10
2018,06,23,00,05,12.10
2018,06,23,00,06,12.10
2018,06,23,00,07,12.10
2018,06,23,00,08,12.10
2018,06,23,00,09,12.10
2018,06,23,00,10,12.10
2018,06,23,00,11,12.00
2018,06,23,00,12,12.00
2018,06,23,00,13,12.00
2018,06,23,00,14,11.90
2018,06,23,00,15,11.90
2018,06,23,00,16,11.90
2018,06,23,00,17,11.90
2018,06,23,00,18,11.90
2018,06,23,00,19,11.80
2018,06,23,00,20,11.80
2018,06,23,00,21,11.80
2018,06,23,00,22,11.80
2018,06,23,00,23,11.80
2018,06,23,00,24,11.80
2018,06,23,00,25,11.70
2018,06,23,00,26,11.70
2018,06,23,00,27,11.70
2018,06,23,00,28,11.70
2018,06,23,00,29,11.70
2018,06,23,00,30,11.70
2018,06,23,00,31,11.70
2018,06,23,00,32,11.70
2018,06,23,00,33,11.70
2018,06,23,00,34,11.70
2018,06,23,00,35,11.60
2018,06,23,00,36,11.60
2018,06,23,00,37,11.60
2018,06,23,00,38,11.60
2018,06,23,00,39,11.60
2018,06,23,00,40,11.50
2018,06,23,00,41,11.50
2018,06,23,00,42,11.50
2018,06,23,00,43,11.50
2018,06,23,00,44,11.40
2018,06,23,00,45,11.40
2018,06,23,00,46,11.40
2018,06,23,00,47,11.40
2018,06,23,00,48,11.30
2018,06,23,00,49,11.30
2018,06,23,00,50,11.30
2018,06,23,00,51,11.30
2018,06,23,00,52,11.30
2018,06,23,00,53,11.30
2018,06,23,00,54,11.20
2018,06,23,00,55,11.20
2018,06,23,00,56,11.20
2018,06,23,00,57,11.20
2018,06,23,00,58,11.20
2018,06,23,00,59,11.20
2018,06,23,01,00,11.20
2018,06,23,01,01,11.20
2018,06,23,01,02,11.10
2018,06,23,01,03,11.10
2018,06,23,01,04,11.10
2018,06,23,01,05,11.10
2018,06,23,01,06,11.10
2018,06,23,01,07,11.10
2018,06,23,01,08,11.10
2018,06,23,01,09,11.10
2018,06,23,01,10,11.10
2018,06,23,01,11,11.10
2018,06,23,01,12,11.10
2018,06,23,01,13,11.10
2018,06,23,01,14,11.10
2018,06,23,01,15,11.10
2018,06,23,01,16,11.20
2018,06,23,01,17,11.20
2018,06,23,01,18,11.20
2018,06,23,01,19,11.20
2018,06,23,01,20,11.10
2018,06,23,01,21,11.20
2018,06,23,01,22,11.20
2018,06,23,01,23,11.20
2018,06,23,01,24,11.20
2018,06,23,01,25,11.20
2018,06,23,01,26,11.20
2018,06,23,01,27,11.10
2018,06,23,01,28,11.10
2018,06,23,01,29,11.10
2018,06,23,01,30,11.10
2018,06,23,01,31,11.10
2018,06,23,01,32,11.10
2018,06,23,01,33,11.10
2018,06,23,01,34,11.10
2018,06,23,01,35,11.10
2018,06,23,01,36,11.00
2018,06,23,01,37,11.00
2018,06,23,01,38,11.00
2018,06,23,01,39,10.90
2018,06,23,01,40,10.90
2018,06,23,01,41,10.90
2018,06,23,01,42,10.90
2018,06,23,01,43,10.90
2018,06,23,01,44,10.90
2018,06,23,01,45,10.90
2018,06,23,01,46,10.90
2018,06,23,01,47,10.90
2018,06,23,01,48,10.90
2018,06,23,01,49,10.90
2018,06,23,01,50,10.90
2018,06,23,01,51,10.90
2018,06,23,01,52,10.90
2018,06,23,01,53,10.90
2018,06,23,01,54,10.90
2018,06,23,01,55,10.90
2018,06,23,01,56,10.90
2018,06,23,01,57,10.90
2018,06,23,01,58,10.90
2018,06,23,01,59,10.90
2018,06,23,02,00,10.80
2018,06,23,02,01,10.80
2018,06,23,02,02,10.80
2018,06,23,02,03,10.80
2018,06,23,02,04,10.80
2018,06,23,02,05,10.80
2018,06,23,02,06,10.80
2018,06,23,02,07,10.80
2018,06,23,02,08,10.80
2018,06,23,02,09,10.80
2018,06,23,02,10,10.80
2018,06,23,02,11,10.80
2018,06,23,02,12,10.80
2018,06,23,02,13,10.80
2018,06,23,02,14,10.80
2018,06,23,02,15,10.80
2018,06,23,02,16,10.80
2018,06,23,02,17,10.80
2018,06,23,02,18,10.80
2018,06,23,02,19,10.80
2018,06,23,02,20,10.80
2018,06,23,02,21,10.70
2018,06,23,02,22,10.70
2018,06,23,02,23,10.70
2018,06,23,02,24,10.70
2018,06,23,02,25,10.70
2018,06,23,02,26,10.70
2018,06,23,02,27,10.70
2018,06,23,02,28,10.70
2018,06,23,02,29,10.60
2018,06,23,02,30,10.60
2018,06,23,02,31,10.60
2018,06,23,02,32,10.60
2018,06,23,02,33,10.60
2018,06,23,02,34,10.60
2018,06,23,02,35,10.60
2018,06,23,02,36,10.60
2018,06,23,02,37,10.60
2018,06,23,02,38,10.60
2018,06,23,02,39,10.60
2018,06,23,02,40,10.60
2018,06,23,02,41,10.60
2018,06,23,02,42,10.60
2018,06,23,02,43,10.60
2018,06,23,02,44,10.50
2018,06,23,02,45,10.50
2018,06,23,02,46,10.50
2018,06,23,02,47,10.50
2018,06,23,02,48,10.50
2018,06,23,02,49,10.60
2018,06,23,02,50,10.50
2018,06,23,02,51,10.50
2018,06,23,02,52,10.50
2018,06,23,02,53,10.50
2018,06,23,02,54,10.50
2018,06,23,02,55,10.40
2018,06,23,02,56,10.40
2018,06,23,02,57,10.40
2018,06,23,02,58,10.40
2018,06,23,02,59,10.40
2018,06,23,03,00,10.40
2018,06,23,03,01,10.40
2018,06,23,03,02,10.40
2018,06,23,03,03,10.40
2018,06,23,03,04,10.40
2018,06,23,03,05,10.30
2018,06,23,03,06,10.30
2018,06,23,03,07,10.30
2018,06,23,03,08,10.30
2018,06,23,03,09,10.30
2018,06,23,03,10,10.30
2018,06,23,03,11,10.30
2018,06,23,03,12,10.30
2018,06,23,03,13,10.30
2018,06,23,03,14,10.30
2018,06,23,03,15,10.40
2018,06,23,03,16,10.40
2018,06,23,03,17,10.30
2018,06,23,03,18,10.30
2018,06,23,03,19,10.30
2018,06,23,03,20,10.30
2018,06,23,03,21,10.30
2018,06,23,03,22,10.30
2018,06,23,03,23,10.30
2018,06,23,03,24,10.30
2018,06,23,03,25,10.30
2018,06,23,03,26,10.30
2018,06,23,03,27,10.30
2018,06,23,03,28,10.30
2018,06,23,03,29,10.30
2018,06,23,03,30,10.30
2018,06,23,03,31,10.30
2018,06,23,03,32,10.30
2018,06,23,03,33,10.20
2018,06,23,03,34,10.20
2018,06,23,03,35,10.20
2018,06,23,03,36,10.20
2018,06,23,03,37,10.20
2018,06,23,03,38,10.20
2018,06,23,03,39,10.20
2018,06,23,03,40,10.10
2018,06,23,03,41,10.10
2018,06,23,03,42,10.10
2018,06,23,03,43,10.10
2018,06,23,03,44,10.10
2018,06,23,03,45,10.10
2018,06,23,03,46,10.10
2018,06,23,03,47,10.10
2018,06,23,03,48,10.10
2018,06,23,03,49,10.20
2018,06,23,03,50,10.20
2018,06,23,03,51,10.20
2018,06,23,03,52,10.20
2018,06,23,03,53,10.20
2018,06,23,03,54,10.20
2018,06,23,03,55,10.10
2018,06,23,03,56,10.10
2018,06,23,03,57,10.10
2018,06,23,03,58,10.10
2018,06,23,03,59,10.10
2018,06,23,04,00,10.10
2018,06,23,04,01,10.10
2018,06,23,04,02,10.10
2018,06,23,04,03,10.10
2018,06,23,04,04,10.10
2018,06,23,04,05,10.00
2018,06,23,04,06,10.00
2018,06,23,04,07,9.90
2018,06,23,04,08,9.90
2018,06,23,04,09,9.90
2018,06,23,04,10,9.90
2018,06,23,04,11,9.90
2018,06,23,04,12,9.90
2018,06,23,04,13,9.90
2018,06,23,04,14,9.90
2018,06,23,04,15,9.90
2018,06,23,04,16,10.00
2018,06,23,04,17,10.00
2018,06,23,04,18,10.00
2018,06,23,04,19,10.00
2018,06,23,04,20,10.00
2018,06,23,04,21,10.00
2018,06,23,04,22,10.00
2018,06,23,04,23,10.00
2018,06,23,04,24,10.00
2018,06,23,04,25,10.00
2018,06,23,04,26,10.00
2018,06,23,04,27,10.00
2018,06,23,04,28,10.10
2018,06,23,04,29,10.10
2018,06,23,04,30,10.00
2018,06,23,04,31,10.00
2018,06,23,04,32,10.00
2018,06,23,04,33,10.00
2018,06,23,04,34,10.00
2018,06,23,04,35,10.00
2018,06,23,04,36,10.00
2018,06,23,04,37,9.90
2018,06,23,04,38,9.90
2018,06,23,04,39,9.90
2018,06,23,04,40,9.90
2018,06,23,04,41,9.90
2018,06,23,04,42,9.90
2018,06,23,04,43,9.80
2018,06,23,04,44,9.80
2018,06,23,04,45,9.80
2018,06,23,04,46,9.70
2018,06,23,04,47,9.70
2018,06,23,04,48,9.70
2018,06,23,04,49,9.70
2018,06,23,04,50,9.70
2018,06,23,04,51,9.70
2018,06,23,04,52,9.70
2018,06,23,04,53,9.60
2018,06,23,04,54,9.60
2018,06,23,04,55,9.70
2018,06,23,04,56,9.70
2018,06,23,04,57,9.80
2018,06,23,04,58,9.80
2018,06,23,04,59,9.80
2018,06,23,05,00,9.80
2018,06,23,05,01,9.80
2018,06,23,05,02,9.80
2018,06,23,05,03,9.80
2018,06,23,05,04,9.80
2018,06,23,05,05,9.80
2018,06,23,05,06,9.80
2018,06,23,05,07,9.90
2018,06,23,05,08,9.90
2018,06,23,05,09,9.90
2018,06,23,05,10,9.90
2018,06,23,05,11,9.90
2018,06,23,05,12,9.90
2018,06,23,05,13,10.00
2018,06,23,05,14,10.00
2018,06,23,05,15,10.00
2018,06,23,05,16,10.00
2018,06,23,05,17,10.00
2018,06,23,05,18,10.00
2018,06,23,05,19,10.00
2018,06,23,05,20,9.90
2018,06,23,05,21,10.00
2018,06,23,05,22,9.90
2018,06,23,05,23,10.00
2018,06,23,05,24,9.90
2018,06,23,05,25,9.90
2018,06,23,05,26,9.90
2018,06,23,05,27,9.90
2018,06,23,05,28,9.90
2018,06,23,05,29,9.90
2018,06,23,05,30,9.90
2018,06,23,05,31,9.90
2018,06,23,05,32,9.90
2018,06,23,05,33,9.90
2018,06,23,05,34,9.90
2018,06,23,05,35,9.90
2018,06,23,05,36,9.90
2018,06,23,05,37,10.00
2018,06,23,05,38,10.00
2018,06,23,05,39,10.00
2018,06,23,05,40,10.10
2018,06,23,05,41,10.10
2018,06,23,05,42,10.10
2018,06,23,05,43,10.10
2018,06,23,05,44,10.10
2018,06,23,05,45,10.10
2018,06,23,05,46,10.10
2018,06,23,05,47,10.10
2018,06,23,05,48,10.20
2018,06,23,05,49,10.20
2018,06,23,05,50,10.20
2018,06,23,05,51,10.10
2018,06,23,05,52,10.20
2018,06,23,05,53,10.20
2018,06,23,05,54,10.20
2018,06,23,05,55,10.20
2018,06,23,05,56,10.20
2018,06,23,05,57,10.10
2018,06,23,05,58,10.10
2018,06,23,05,59,10.10
2018,06,23,06,00,10.10
2018,06,23,06,01,10.10
2018,06,23,06,02,10.10
2018,06,23,06,03,10.10
2018,06,23,06,04,10.10
2018,06,23,06,05,10.10
2018,06,23,06,06,10.10
2018,06,23,06,07,10.10
2018,06,23,06,08,10.20
2018,06,23,06,09,10.30
2018,06,23,06,10,10.40
2018,06,23,06,11,10.40
2018,06,23,06,12,10.50
2018,06,23,06,13,10.60
2018,06,23,06,14,10.60
2018,06,23,06,15,10.60
2018,06,23,06,16,10.60
2018,06,23,06,17,10.60
2018,06,23,06,18,10.60
2018,06,23,06,19,10.60
2018,06,23,06,20,10.60
2018,06,23,06,21,10.50
2018,06,23,06,22,10.50
2018,06,23,06,23,10.40
2018,06,23,06,24,10.30
2018,06,23,06,25,10.30
2018,06,23,06,26,10.30
2018,06,23,06,27,10.30
2018,06,23,06,28,10.20
2018,06,23,06,29,10.20
2018,06,23,06,30,10.20
2018,06,23,06,31,10.20
2018,06,23,06,32,10.20
2018,06,23,06,33,10.20
2018,06,23,06,34,10.20
2018,06,23,06,35,10.20
2018,06,23,06,36,10.20
2018,06,23,06,37,10.20
2018,06,23,06,38,10.20
2018,06,23,06,39,10.20
2018,06,23,06,40,10.20
2018,06,23,06,41,10.20
2018,06,23,06,42,10.20
2018,06,23,06,43,10.20
2018,06,23,06,44,10.20
2018,06,23,06,45,10.30
2018,06,23,06,46,10.30
2018,06,23,06,47,10.30
2018,06,23,06,48,10.40
2018,06,23,06,49,10.40
2018,06,23,06,50,10.40
2018,06,23,06,51,10.40
2018,06,23,06,52,10.50
2018,06,23,06,53,10.50
2018,06,23,06,54,10.50
2018,06,23,06,55,10.60
2018,06,23,06,56,10.60
2018,06,23,06,57,10.60
2018,06,23,06,58,10.70
2018,06,23,06,59,10.70
2018,06,23,07,00,10.80
2018,06,23,07,01,10.80
2018,06,23,07,02,10.80
2018,06,23,07,03,10.90
2018,06,23,07,04,10.90
2018,06,23,07,05,10.90
2018,06,23,07,06,10.90
2018,06,23,07,07,11.00
2018,06,23,07,08,11.00
2018,06,23,07,09,11.10
2018,06,23,07,10,11.10
2018,06,23,07,11,11.10
2018,06,23,07,12,11.10
2018,06,23,07,13,11.20
2018,06,23,07,14,11.20
2018,06,23,07,15,11.20
2018,06,23,07,16,11.30
2018,06,23,07,17,11.30
2018,06,23,07,18,11.30
2018,06,23,07,19,11.30
2018,06,23,07,20,11.40
2018,06,23,07,21,11.40
2018,06,23,07,22,11.50
2018,06,23,07,23,11.50
2018,06,23,07,24,11.60
2018,06,23,07,25,11.60
2018,06,23,07,26,11.70
2018,06,23,07,27,11.70
2018,06,23,07,28,11.80
2018,06,23,07,29,11.80
2018,06,23,07,30,11.90
2018,06,23,07,31,11.90
2018,06,23,07,32,12.00
2018,06,23,07,33,12.00
2018,06,23,07,34,12.00
2018,06,23,07,35,12.10
2018,06,23,07,36,12.10
2018,06,23,07,37,12.10
2018,06,23,07,38,12.10
2018,06,23,07,39,12.10
2018,06,23,07,40,12.20
2018,06,23,07,41,12.20
2018,06,23,07,42,12.20
2018,06,23,07,43,12.20
2018,06,23,07,44,12.20
2018,06,23,07,45,12.30
2018,06,23,07,46,12.30
2018,06,23,07,47,12.30
2018,06,23,07,48,12.30
2018,06,23,07,49,12.30
2018,06,23,07,50,12.30
2018,06,23,07,51,12.30
2018,06,23,07,52,12.30
2018,06,23,07,53,12.30
2018,06,23,07,54,12.40
2018,06,23,07,55,12.40
2018,06,23,07,56,12.40
2018,06,23,07,57,12.40
2018,06,23,07,58,12.40
2018,06,23,07,59,12.50
2018,06,23,08,00,12.50
2018,06,23,08,01,12.50
2018,06,23,08,02,12.50
2018,06,23,08,03,12.60
2018,06,23,08,04,12.60
2018,06,23,08,05,12.60
2018,06,23,08,06,12.60
2018,06,23,08,07,12.70
2018,06,23,08,08,12.70
2018,06,23,08,09,12.70
2018,06,23,08,10,12.70
2018,06,23,08,11,12.70
2018,06,23,08,12,12.70
2018,06,23,08,13,12.80
2018,06,23,08,14,12.80
2018,06,23,08,15,12.80
2018,06,23,08,16,12.80
2018,06,23,08,17,12.90
2018,06,23,08,18,12.90
2018,06,23,08,19,12.90
2018,06,23,08,20,12.90
2018,06,23,08,21,13.00
2018,06,23,08,22,13.00
2018,06,23,08,23,13.00
2018,06,23,08,24,13.10
2018,06,23,08,25,13.10
2018,06,23,08,26,13.10
2018,06,23,08,27,13.20
2018,06,23,08,28,13.30
2018,06,23,08,29,13.30
2018,06,23,08,30,13.30
2018,06,23,08,31,13.40
2018,06,23,08,32,13.50
2018,06,23,08,33,13.50
2018,06,23,08,34,13.60
2018,06,23,08,35,13.60
2018,06,23,08,36,13.70
2018,06,23,08,37,13.70
2018,06,23,08,38,13.80
2018,06,23,08,39,13.80
2018,06,23,08,40,13.90
2018,06,23,08,41,13.90
2018,06,23,08,42,14.00
2018,06,23,08,43,14.10
2018,06,23,08,44,14.10
2018,06,23,08,45,14.20
2018,06,23,08,46,14.20
2018,06,23,08,47,14.30
2018,06,23,08,48,14.40
2018,06,23,08,49,14.50
2018,06,23,08,50,14.60
2018,06,23,08,51,14.70
2018,06,23,08,52,14.90
2018,06,23,08,53,15.00
2018,06,23,08,54,15.10
2018,06,23,08,55,15.20
2018,06,23,08,56,15.20
2018,06,23,08,57,15.30
2018,06,23,08,58,15.30
2018,06,23,08,59,15.40
2018,06,23,09,00,15.50
2018,06,23,09,01,15.50
2018,06,23,09,02,15.60
2018,06,23,09,03,15.70
2018,06,23,09,04,15.80
2018,06,23,09,05,15.80
2018,06,23,09,06,15.90
2018,06,23,09,07,15.90
2018,06,23,09,08,15.90
2018,06,23,09,09,15.90
2018,06,23,09,10,15.90
2018,06,23,09,11,15.90
2018,06,23,09,12,16.00
2018,06,23,09,13,16.00
2018,06,23,09,14,16.00
2018,06,23,09,15,16.10
2018,06,23,09,16,16.20
2018,06,23,09,17,16.20
2018,06,23,09,18,16.30
2018,06,23,09,19,16.30
2018,06,23,09,20,16.30
2018,06,23,09,21,16.30
2018,06,23,09,22,16.20
2018,06,23,09,23,16.20
2018,06,23,09,24,16.10
2018,06,23,09,25,16.10
2018,06,23,09,26,16.00
2018,06,23,09,27,16.00
2018,06,23,09,28,15.90
2018,06,23,09,29,15.90
2018,06,23,09,30,15.90
2018,06,23,09,31,15.90
2018,06,23,09,32,15.90
2018,06,23,09,33,15.90
2018,06,23,09,34,16.00
2018,06,23,09,35,16.00
2018,06,23,09,36,16.10
2018,06,23,09,37,16.10
2018,06,23,09,38,16.20
2018,06,23,09,39,16.20
2018,06,23,09,40,16.20
2018,06,23,09,41,16.30
2018,06,23,09,42,16.30
2018,06,23,09,43,16.30
2018,06,23,09,44,16.30
2018,06,23,09,45,16.30
2018,06,23,09,46,16.30
2018,06,23,09,47,16.30
2018,06,23,09,48,16.40
2018,06,23,09,49,16.50
2018,06,23,09,50,16.60
2018,06,23,09,51,16.60
2018,06,23,09,52,16.70
2018,06,23,09,53,16.70
2018,06,23,09,54,16.80
2018,06,23,09,55,16.70
2018,06,23,09,56,16.60
2018,06,23,09,57,16.50
2018,06,23,09,58,16.30
2018,06,23,09,59,16.20
2018,06,23,10,00,16.10
2018,06,23,10,01,16.00
2018,06,23,10,02,15.90
2018,06,23,10,03,15.80
2018,06,23,10,04,15.70
2018,06,23,10,05,15.70
2018,06,23,10,06,15.70
2018,06,23,10,07,15.70
2018,06,23,10,08,15.60
2018,06,23,10,09,15.70
2018,06,23,10,10,15.70
2018,06,23,10,11,15.70
2018,06,23,10,12,15.70
2018,06,23,10,13,15.70
2018,06,23,10,14,15.80
2018,06,23,10,15,15.80
2018,06,23,10,16,15.80
2018,06,23,10,17,15.80
2018,06,23,10,18,15.90
2018,06,23,10,19,15.90
2018,06,23,10,20,15.90
2018,06,23,10,21,15.90
2018,06,23,10,22,15.90
2018,06,23,10,23,15.90
2018,06,23,10,24,16.00
2018,06,23,10,25,16.00
2018,06,23,10,26,16.10
2018,06,23,10,27,16.20
2018,06,23,10,28,16.30
2018,06,23,10,29,16.30
2018,06,23,10,30,16.40
2018,06,23,10,31,16.40
2018,06,23,10,32,16.40
2018,06,23,10,33,16.50
2018,06,23,10,34,16.60
2018,06,23,10,35,16.60
2018,06,23,10,36,16.60
2018,06,23,10,37,16.70
2018,06,23,10,38,16.80
2018,06,23,10,39,16.80
2018,06,23,10,40,16.90
2018,06,23,10,41,17.10
2018,06,23,10,42,17.20
2018,06,23,10,43,17.30
2018,06,23,10,44,17.30
2018,06,23,10,45,17.40
2018,06,23,10,46,17.40
2018,06,23,10,47,17.50
2018,06,23,10,48,17.60
2018,06,23,10,49,17.70
2018,06,23,10,50,17.80
2018,06,23,10,51,17.80
2018,06,23,10,52,17.90
2018,06,23,10,53,18.00
2018,06,23,10,54,18.10
2018,06,23,10,55,18.10
2018,06,23,10,56,18.10
2018,06,23,10,57,18.10
2018,06,23,10,58,18.00
2018,06,23,10,59,18.00
2018,06,23,11,00,18.00
2018,06,23,11,01,18.00
2018,06,23,11,02,18.10
2018,06,23,11,03,18.10
2018,06,23,11,04,18.20
2018,06,23,11,05,18.20
2018,06,23,11,06,18.20
2018,06,23,11,07,18.10
2018,06,23,11,08,18.10
2018,06,23,11,09,18.00
2018,06,23,11,10,18.00
2018,06,23,11,11,17.90
2018,06,23,11,12,17.90
2018,06,23,11,13,17.80
2018,06,23,11,14,17.70
2018,06,23,11,15,17.70
2018,06,23,11,16,17.80
2018,06,23,11,17,17.80
2018,06,23,11,18,17.80
2018,06,23,11,19,17.80
2018,06,23,11,20,17.80
2018,06,23,11,21,17.80
2018,06,23,11,22,17.90
2018,06,23,11,23,18.00
2018,06,23,11,24,18.10
2018,06,23,11,25,18.20
2018,06,23,11,26,18.30
2018,06,23,11,27,18.40
2018,06,23,11,28,18.50
2018,06,23,11,29,18.60
2018,06,23,11,30,18.60
2018,06,23,11,31,18.70
2018,06,23,11,32,18.70
2018,06,23,11,33,18.70
2018,06,23,11,34,18.70
2018,06,23,11,35,18.70
2018,06,23,11,36,18.70
2018,06,23,11,37,18.70
2018,06,23,11,38,18.70
2018,06,23,11,39,18.80
2018,06,23,11,40,18.80
2018,06,23,11,41,18.80
2018,06,23,11,42,18.80
2018,06,23,11,43,18.70
2018,06,23,11,44,18.60
2018,06,23,11,45,18.60
2018,06,23,11,46,18.60
2018,06,23,11,47,18.60
2018,06,23,11,48,18.60
2018,06,23,11,49,18.70
2018,06,23,11,50,18.80
2018,06,23,11,51,18.80
2018,06,23,11,52,18.80
2018,06,23,11,53,18.90
2018,06,23,11,54,18.90
2018,06,23,11,55,18.90
2018,06,23,11,56,18.90
2018,06,23,11,57,18.90
2018,06,23,11,58,18.90
2018,06,23,11,59,18.90
2018,06,23,12,00,18.90
2018,06,23,12,01,18.90
2018,06,23,12,02,18.90
2018,06,23,12,03,19.00
2018,06,23,12,04,19.00
2018,06,23,12,05,19.00
2018,06,23,12,06,19.00
2018,06,23,12,07,19.00
2018,06,23,12,08,18.90
2018,06,23,12,09,18.90
2018,06,23,12,10,18.90
2018,06,23,12,11,18.80
2018,06,23,12,12,18.80
2018,06,23,12,13,18.80
2018,06,23,12,14,18.80
2018,06,23,12,15,18.80
2018,06,23,12,16,18.80
2018,06,23,12,17,18.90
2018,06,23,12,18,19.00
2018,06,23,12,19,19.10
2018,06,23,12,20,19.10
2018,06,23,12,21,19.10
2018,06,23,12,22,19.20
2018,06,23,12,23,19.20
2018,06,23,12,24,19.20
2018,06,23,12,25,19.30
2018,06,23,12,26,19.30
2018,06,23,12,27,19.30
2018,06,23,12,28,19.30
2018,06,23,12,29,19.30
2018,06,23,12,30,19.30
2018,06,23,12,31,19.30
2018,06,23,12,32,19.30
2018,06,23,12,33,19.40
2018,06,23,12,34,19.40
2018,06,23,12,35,19.50
2018,06,23,12,36,19.50
2018,06,23,12,37,19.60
2018,06,23,12,38,19.60
2018,06,23,12,39,19.60
2018,06,23,12,40,19.50
2018,06,23,12,41,19.50
2018,06,23,12,42,19.50
2018,06,23,12,43,19.40
2018,06,23,12,44,19.40
2018,06,23,12,45,19.40
2018,06,23,12,46,19.40
2018,06,23,12,47,19.40
2018,06,23,12,48,19.30
2018,06,23,12,49,19.20
2018,06,23,12,50,19.30
2018,06,23,12,51,19.30
2018,06,23,12,52,19.40
2018,06,23,12,53,19.60
2018,06,23,12,54,19.70
2018,06,23,12,55,19.80
2018,06,23,12,56,19.80
2018,06,23,12,57,19.80
2018,06,23,12,58,19.80
2018,06,23,12,59,19.90
2018,06,23,13,00,19.90
2018,06,23,13,01,20.00
2018,06,23,13,02,20.10
2018,06,23,13,03,20.10
2018,06,23,13,04,20.10
2018,06,23,13,05,20.20
2018,06,23,13,06,20.20
2018,06,23,13,07,20.30
2018,06,23,13,08,20.30
2018,06,23,13,09,20.30
2018,06,23,13,10,20.30
2018,06,23,13,11,20.30
2018,06,23,13,12,20.40
2018,06,23,13,13,20.40
2018,06,23,13,14,20.40
2018,06,23,13,15,20.40
2018,06,23,13,16,20.50
2018,06,23,13,17,20.50
2018,06,23,13,18,20.50
2018,06,23,13,19,20.60
2018,06,23,13,20,20.50
2018,06,23,13,21,20.50
2018,06,23,13,22,20.40
2018,06,23,13,23,20.30
2018,06,23,13,24,20.30
2018,06,23,13,25,20.30
2018,06,23,13,26,20.30
2018,06,23,13,27,20.30
2018,06,23,13,28,20.30
2018,06,23,13,29,20.30
2018,06,23,13,30,20.30
2018,06,23,13,31,20.30
2018,06,23,13,32,20.30
2018,06,23,13,33,20.30
2018,06,23,13,34,20.30
2018,06,23,13,35,20.30
2018,06,23,13,36,20.40
2018,06,23,13,37,20.40
2018,06,23,13,38,20.40
2018,06,23,13,39,20.40
2018,06,23,13,40,20.30
2018,06,23,13,41,20.20
2018,06,23,13,42,20.10
2018,06,23,13,43,20.10
2018,06,23,13,44,20.00
2018,06,23,13,45,20.00
2018,06,23,13,46,20.00
2018,06,23,13,47,20.00
2018,06,23,13,48,20.00
2018,06,23,13,49,20.10
2018,06,23,13,50,20.10
2018,06,23,13,51,20.00
2018,06,23,13,52,20.00
2018,06,23,13,53,19.90
2018,06,23,13,54,19.80
2018,06,23,13,55,19.70
2018,06,23,13,56,19.70
2018,06,23,13,57,19.70
2018,06,23,13,58,19.70
2018,06,23,13,59,19.70
2018,06,23,14,00,19.60
2018,06,23,14,01,19.60
2018,06,23,14,02,19.50
2018,06,23,14,03,19.40
2018,06,23,14,04,19.30
2018,06,23,14,05,19.30
2018,06,23,14,06,19.30
2018,06,23,14,07,19.30
2018,06,23,14,08,19.40
2018,06,23,14,09,19.40
2018,06,23,14,10,19.50
2018,06,23,14,11,19.50
2018,06,23,14,12,19.50
2018,06,23,14,13,19.40
2018,06,23,14,14,19.40
2018,06,23,14,15,19.30
2018,06,23,14,16,19.30
2018,06,23,14,17,19.30
2018,06,23,14,18,19.30
2018,06,23,14,19,19.20
2018,06,23,14,20,19.00
2018,06,23,14,21,18.90
2018,06,23,14,22,18.90
2018,06,23,14,23,18.90
2018,06,23,14,24,18.90
2018,06,23,14,25,18.90
2018,06,23,14,26,19.00
2018,06,23,14,27,19.00
2018,06,23,14,28,19.00
2018,06,23,14,29,18.90
2018,06,23,14,30,18.70
2018,06,23,14,31,18.60
2018,06,23,14,32,18.60
2018,06,23,14,33,18.50
2018,06,23,14,34,18.50
2018,06,23,14,35,18.40
2018,06,23,14,36,18.40
2018,06,23,14,37,18.40
2018,06,23,14,38,18.40
2018,06,23,14,39,18.40
2018,06,23,14,40,18.50
2018,06,23,14,41,18.50
2018,06,23,14,42,18.40
2018,06,23,14,43,18.40
2018,06,23,14,44,18.40
2018,06,23,14,45,18.40
2018,06,23,14,46,18.50
2018,06,23,14,47,18.60
2018,06,23,14,48,18.60
2018,06,23,14,49,18.60
2018,06,23,14,50,18.60
2018,06,23,14,51,18.60
2018,06,23,14,52,18.60
2018,06,23,14,53,18.70
2018,06,23,14,54,18.70
2018,06,23,14,55,18.70
2018,06,23,14,56,18.70
2018,06,23,14,57,18.70
2018,06,23,14,58,18.80
2018,06,23,14,59,18.90
2018,06,23,15,00,19.00
2018,06,23,15,01,19.10
2018,06,23,15,02,19.10
2018,06,23,15,03,19.20
2018,06,23,15,04,19.20
2018,06,23,15,05,19.20
2018,06,23,15,06,19.20
2018,06,23,15,07,19.20
2018,06,23,15,08,19.10
2018,06,23,15,09,19.00
2018,06,23,15,10,18.90
2018,06,23,15,11,18.80
2018,06,23,15,12,18.80
2018,06,23,15,13,18.70
2018,06,23,15,14,18.70
2018,06,23,15,15,18.70
2018,06,23,15,16,18.70
2018,06,23,15,17,18.70
2018,06,23,15,18,18.70
2018,06,23,15,19,18.70
2018,06,23,15,20,18.70
2018,06,23,15,21,18.70
2018,06,23,15,22,18.80
2018,06,23,15,23,18.80
2018,06,23,15,24,18.90
2018,06,23,15,25,19.00
2018,06,23,15,26,19.00
2018,06,23,15,27,19.00
2018,06,23,15,28,19.00
2018,06,23,15,29,18.90
2018,06,23,15,30,18.70
2018,06,23,15,31,18.70
2018,06,23,15,32,18.70
2018,06,23,15,33,18.70
2018,06,23,15,34,18.80
2018,06,23,15,35,18.90
2018,06,23,15,36,18.90
2018,06,23,15,37,19.00
2018,06,23,15,38,19.00
2018,06,23,15,39,19.10
2018,06,23,15,40,19.20
2018,06,23,15,41,19.20
2018,06,23,15,42,19.20
2018,06,23,15,43,19.20
2018,06,23,15,44,19.20
2018,06,23,15,45,19.20
2018,06,23,15,46,19.10
2018,06,23,15,47,19.10
2018,06,23,15,48,19.20
2018,06,23,15,49,19.20
2018,06,23,15,50,19.30
2018,06,23,15,51,19.40
2018,06,23,15,52,19.50
2018,06,23,15,53,19.50
2018,06,23,15,54,19.50
2018,06,23,15,55,19.50
2018,06,23,15,56,19.60
2018,06,23,15,57,19.60
2018,06,23,15,58,19.70
2018,06,23,15,59,19.80
2018,06,23,16,00,19.90
2018,06,23,16,01,20.10
2018,06,23,16,02,20.20
2018,06,23,16,03,20.30
2018,06,23,16,04,20.40
2018,06,23,16,05,20.40
2018,06,23,16,06,20.40
2018,06,23,16,07,20.50
2018,06,23,16,08,20.50
2018,06,23,16,09,20.50
2018,06,23,16,10,20.50
2018,06,23,16,11,20.60
2018,06,23,16,12,20.50
2018,06,23,16,13,20.40
2018,06,23,16,14,20.30
2018,06,23,16,15,20.20
2018,06,23,16,16,20.10
2018,06,23,16,17,20.10
2018,06,23,16,18,20.10
2018,06,23,16,19,20.10
2018,06,23,16,20,20.00
2018,06,23,16,21,19.80
2018,06,23,16,22,19.70
2018,06,23,16,23,19.70
2018,06,23,16,24,19.50
2018,06,23,16,25,19.40
2018,06,23,16,26,19.30
2018,06,23,16,27,19.30
2018,06,23,16,28,19.20
2018,06,23,16,29,19.10
2018,06,23,16,30,19.00
2018,06,23,16,31,18.90
2018,06,23,16,32,18.80
2018,06,23,16,33,18.70
2018,06,23,16,34,18.60
2018,06,23,16,35,18.60
2018,06,23,16,36,18.60
2018,06,23,16,37,18.60
2018,06,23,16,38,18.70
2018,06,23,16,39,18.70
2018,06,23,16,40,18.80
2018,06,23,16,41,18.90
2018,06,23,16,42,18.90
2018,06,23,16,43,18.90
2018,06,23,16,44,18.90
2018,06,23,16,45,19.00
2018,06,23,16,46,19.00
2018,06,23,16,47,19.10
2018,06,23,16,48,19.10
2018,06,23,16,49,19.10
2018,06,23,16,50,19.00
2018,06,23,16,51,18.90
2018,06,23,16,52,18.80
2018,06,23,16,53,18.80
2018,06,23,16,54,18.70
2018,06,23,16,55,18.70
2018,06,23,16,56,18.60
2018,06,23,16,57,18.50
2018,06,23,16,58,18.40
2018,06,23,16,59,18.30
2018,06,23,17,00,18.20
2018,06,23,17,01,18.10
2018,06,23,17,02,18.10
2018,06,23,17,03,18.00
2018,06,23,17,04,18.00
2018,06,23,17,05,18.10
2018,06,23,17,06,18.10
2018,06,23,17,07,18.10
2018,06,23,17,08,18.20
2018,06,23,17,09,18.20
2018,06,23,17,10,18.30
2018,06,23,17,11,18.30
2018,06,23,17,12,18.40
2018,06,23,17,13,18.40
2018,06,23,17,14,18.40
2018,06,23,17,15,18.40
2018,06,23,17,16,18.40
2018,06,23,17,17,18.40
2018,06,23,17,18,18.30
2018,06,23,17,19,18.20
2018,06,23,17,20,18.20
2018,06,23,17,21,18.10
2018,06,23,17,22,18.10